Dewar Lakes, Nunavut

4:48 AM EDT on July 25, 2017 (GMT -0400)
Dewar Lakes

Weather History for CWUW - October, 2012

Change the Weather History Date:

Saturday, October 6, 2012

  Actual Average Record
Temperature  
Mean Temperature 16 °F -  
Max Temperature 21 °F 14 °F 30 °F (1998)
Min Temperature 10 °F 5 °F 3 °F (2005)
Degree Days  
Heating Degree Days 50    
Moisture  
Dew Point -    
Average Humidity    
Maximum Humidity    
Minimum Humidity    
Precipitation  
Precipitation 0.00 in 0.04 in - ()
Sea Level Pressure  
Sea Level Pressure 29.92 in    
Wind  
Wind Speed 6 mph ()    
Max Wind Speed 13 mph    
Max Gust Speed -    
Visibility 4.8 miles    
Events Rain , Snow    
Averages and records for this station are not official NWS values.
T = Trace of Precipitation, MM = Missing Value Source: Averaged Metar Reports

Daily Weather History Graph

Daily Weather History Graph

Search for Another Location

Airport or City:

Trip Planner

Search our weather history database for the weather conditions in past years. The results will help you decide how hot, cold, wet, or windy it might be!

Date:

Astronomy

Oct. 06, 2012 Rise Set
Actual Time 7:18 AM EDT 5:44 PM EDT
Civil Twilight 6:21 AM EDT 6:41 PM EDT
Nautical Twilight 5:14 AM EDT 7:48 PM EDT
Astronomical Twilight 4:01 AM EDT 9:00 PM EDT
Moon 6:42 PM EDT (10/6) 4:29 PM EDT (10/6)
Length of Visible Light 12h 20m
Length of Day
10h 25m
Waning Gibbous, 65% of the Moon is Illuminated
Oct 6
Waning Gibbous
Oct 8
Last Quarter
Oct 15
New
Oct 21
First Quarter
Oct 29
Full

Hourly Weather History & Observations

Time (EDT) Temp. Windchill Dew Point Humidity Pressure Visibility Wind Dir Wind Speed Gust Speed Precip Events Conditions
12:00 AM 10.4 °F 0.8 °F - N/A% 29.99 in 9.0 mi NW 5.8 mph - N/A   Overcast
12:10 AM 10.4 °F 0.8 °F - N/A% 29.82 in 9.0 mi NNW 5.8 mph - N/A   Overcast
12:37 AM 10.4 °F 0.8 °F - N/A% 29.82 in 9.0 mi West 5.8 mph - N/A   Overcast
12:50 AM 10.4 °F -0.4 °F - N/A% 29.83 in 9.0 mi West 6.9 mph - N/A   Overcast
1:00 AM 10.4 °F -0.4 °F - N/A% 30.00 in 9.0 mi West 6.9 mph - N/A   Overcast
1:34 AM 10.4 °F -0.4 °F - N/A% 29.84 in 9.0 mi West 6.9 mph - N/A   Mostly Cloudy
1:39 AM 10.4 °F -0.4 °F - N/A% 29.84 in 9.0 mi West 6.9 mph - N/A   Mostly Cloudy
1:59 AM 10.4 °F -0.4 °F - N/A% 29.84 in 9.0 mi West 6.9 mph - N/A   Overcast
2:00 AM 10 °F - - % 30.01 in 9 mi West 6.9 mph - -   Overcast
2:00 AM 10.4 °F -0.4 °F - N/A% 30.01 in 9.0 mi West 6.9 mph - N/A   Overcast
2:20 AM 10.4 °F -1.5 °F - N/A% 29.84 in 9.0 mi West 8.1 mph - N/A   Overcast
2:40 AM 10.4 °F -2.4 °F - N/A% 29.84 in 9.0 mi WNW 9.2 mph - N/A   Overcast
2:48 AM 12.2 °F -2.5 °F - N/A% 29.84 in 9.0 mi WNW 12.7 mph - N/A Rain Light Freezing Rain
2:52 AM 14.0 °F -0.2 °F - N/A% 29.84 in 9.0 mi WNW 12.7 mph - N/A Rain Light Freezing Rain
2:55 AM 14.0 °F 0.5 °F - N/A% 29.84 in 9.0 mi WNW 11.5 mph - N/A   Overcast
3:00 AM 14.0 °F -0.2 °F - N/A% 30.01 in 9.0 mi NW 12.7 mph - N/A   Overcast
3:06 AM 14.0 °F -0.2 °F - N/A% 29.84 in 9.0 mi NW 12.7 mph - N/A   Overcast
3:40 AM 10.4 °F 2.2 °F - N/A% 29.85 in 9.0 mi WSW 4.6 mph - N/A   Overcast
4:00 AM 12.2 °F 4.3 °F - N/A% 30.02 in 9.0 mi SW 4.6 mph - N/A   Overcast
4:39 AM 12.2 °F 2.9 °F - N/A% 29.86 in 9.0 mi SW 5.8 mph - N/A   Overcast
4:55 AM 12.2 °F 4.3 °F - N/A% 29.86 in 9.0 mi West 4.6 mph - N/A   Overcast
5:00 AM 13 °F - - % 30.02 in 9 mi West 4.6 mph - -   Overcast
5:00 AM 12.2 °F 4.3 °F - N/A% 30.02 in 9.0 mi West 4.6 mph - N/A   Overcast
5:10 AM 14.0 °F 6.5 °F - N/A% 29.86 in 9.0 mi West 4.6 mph - N/A   Overcast
5:25 AM 14.0 °F 8.2 °F - N/A% 29.86 in 8.0 mi West 3.5 mph - N/A   Overcast
5:41 AM 14.0 °F 6.5 °F - N/A% 29.86 in 9.0 mi West 4.6 mph - N/A   Overcast
5:56 AM 14.0 °F - - N/A% 29.86 in 9.0 mi WSW 2.3 mph - N/A   Overcast
6:00 AM 14.0 °F 8.2 °F - N/A% 30.03 in 9.0 mi West 3.5 mph - N/A   Overcast
6:01 AM 14.0 °F 8.2 °F - N/A% 29.86 in 9.0 mi West 3.5 mph - N/A   Overcast
7:00 AM 15.8 °F - - N/A% 30.03 in 9.0 mi Calm Calm - N/A   Overcast
7:23 AM 15.8 °F - - N/A% 29.87 in 9.0 mi South 2.3 mph - N/A   Overcast
7:30 AM 15.8 °F 10.2 °F - N/A% 29.87 in 9.0 mi South 3.5 mph - N/A   Overcast
7:39 AM 15.8 °F 8.6 °F - N/A% 29.86 in 9.0 mi South 4.6 mph - N/A   Overcast
7:40 AM 15.8 °F 8.6 °F - N/A% 29.86 in 9.0 mi South 4.6 mph - N/A   Overcast
7:42 AM 15.8 °F 7.2 °F - N/A% 29.86 in 9.0 mi South 5.8 mph - N/A   Overcast
8:00 AM 15 °F - - % 30.04 in 7 mi SSE 4.6 mph - -   Overcast
8:00 AM 15.8 °F 10.2 °F - N/A% 30.04 in 7.0 mi South 3.5 mph - N/A   Overcast
8:07 AM 15.8 °F 10.2 °F - N/A% 29.87 in 7.0 mi SSE 3.5 mph - N/A   Overcast
8:15 AM 15.8 °F 10.2 °F - N/A% 29.87 in 4.0 mi South 3.5 mph - N/A   Overcast
8:17 AM 15.8 °F 8.6 °F - N/A% 29.87 in 4.0 mi South 4.6 mph - N/A   Overcast
8:18 AM 15.8 °F 8.6 °F - N/A% 29.87 in 4.0 mi South 4.6 mph - N/A   Overcast
8:28 AM 15.8 °F 7.2 °F - N/A% 29.87 in 4.0 mi SSE 5.8 mph - N/A   Overcast
8:29 AM 15.8 °F 7.2 °F - N/A% 29.87 in 4.0 mi SSE 5.8 mph - N/A   Overcast
8:34 AM 15.8 °F 7.2 °F - N/A% 29.87 in 3.5 mi South 5.8 mph - N/A   Overcast
8:37 AM 15.8 °F 7.2 °F - N/A% 29.87 in 3.5 mi SSE 5.8 mph - N/A   Overcast
8:39 AM 15.8 °F 7.2 °F - N/A% 29.87 in 3.0 mi South 5.8 mph - N/A Snow Light Snow
9:00 AM 15.8 °F 6.1 °F - N/A% 30.04 in 1.5 mi SSE 6.9 mph - N/A Snow Light Snow
9:06 AM 15.8 °F 6.1 °F - N/A% 29.87 in 1.4 mi SSE 6.9 mph - N/A Snow Light Snow
9:15 AM 15.8 °F 6.1 °F - N/A% 29.87 in 1.0 mi SSE 6.9 mph - N/A Snow Light Snow
9:18 AM 17.6 °F 8.2 °F - N/A% 29.87 in 0.6 mi SSE 6.9 mph - N/A Snow Light Snow
9:21 AM 17.6 °F 8.2 °F - N/A% 29.87 in 0.6 mi SSE 6.9 mph - N/A   Light Freezing Drizzle
9:27 AM 17.6 °F 8.2 °F - N/A% 29.87 in 0.4 mi SSE 6.9 mph - N/A   Light Freezing Drizzle
9:41 AM 17.6 °F 8.2 °F - N/A% 29.87 in 0.8 mi SSE 6.9 mph - N/A Snow Light Snow
9:52 AM 17.6 °F 8.2 °F - N/A% 29.87 in 0.6 mi SSE 6.9 mph - N/A Snow Light Snow
10:00 AM 17.6 °F 8.2 °F - N/A% 30.03 in 0.5 mi SSE 6.9 mph - N/A Snow Light Snow
10:07 AM 17.6 °F 7.3 °F - N/A% 29.87 in 0.4 mi SSE 8.1 mph - N/A   Light Freezing Drizzle
10:18 AM 17.6 °F 7.3 °F - N/A% 29.87 in 0.1 mi South 8.1 mph - N/A   Light Freezing Drizzle
11:00 AM 17 °F - - % 30.03 in 0 mi South 6.9 mph - - Rain Heavy Freezing Drizzle
11:00 AM 17.6 °F 8.2 °F - N/A% 30.03 in 0.1 mi South 6.9 mph - N/A   Light Freezing Drizzle
11:26 AM 17.6 °F 9.3 °F - N/A% 29.87 in 0.1 mi South 5.8 mph - N/A Snow Light Snow
11:46 AM 19.4 °F 10.4 °F - N/A% 29.87 in 0.1 mi SW 6.9 mph - N/A   Clear
12:00 PM 19.4 °F 9.5 °F - N/A% 30.04 in 0.1 mi SW 8.1 mph - N/A   Clear
1:00 PM 19.4 °F 8.6 °F - N/A% 30.04 in 0.1 mi WSW 9.2 mph - N/A   Clear
1:06 PM 19.4 °F 8.6 °F - N/A% 29.88 in 0.1 mi WSW 9.2 mph - N/A   Clear
1:31 PM 21.2 °F 9.5 °F - N/A% 29.88 in 0.5 mi WSW 11.5 mph - N/A   Clear
1:45 PM 21.2 °F 9.5 °F - N/A% 29.89 in 1.0 mi WSW 11.5 mph - N/A   Overcast
1:49 PM 21.2 °F 9.5 °F - N/A% 29.88 in 4.0 mi WSW 11.5 mph - N/A   Overcast
1:50 PM 21.2 °F 9.5 °F - N/A% 29.88 in 5.0 mi WSW 11.5 mph - N/A   Overcast
1:53 PM 21.2 °F 9.5 °F - N/A% 29.88 in 8.0 mi WSW 11.5 mph - N/A   Overcast
2:00 PM 20 °F - - % 30.04 in 7 mi WSW 11.5 mph - -   Overcast
2:00 PM 21.2 °F 9.5 °F - N/A% 30.04 in 8.0 mi WSW 11.5 mph - N/A   Overcast
2:07 PM 21.2 °F 8.9 °F - N/A% 29.88 in 7.0 mi WSW 12.7 mph - N/A   Overcast
2:12 PM 21.2 °F 9.5 °F - N/A% 29.88 in 8.0 mi WSW 11.5 mph - N/A   Overcast
2:19 PM 21.2 °F 9.5 °F - N/A% 29.89 in 9.0 mi WSW 11.5 mph - N/A   Overcast
2:27 PM 21.2 °F 8.9 °F - N/A% 29.89 in 9.0 mi WSW 12.7 mph - N/A   Overcast
2:35 PM 21.2 °F 9.5 °F - N/A% 29.89 in 9.0 mi WSW 11.5 mph - N/A   Overcast
3:00 PM 21.2 °F 10.1 °F - N/A% 30.05 in 9.0 mi WSW 10.4 mph - N/A   Overcast
3:55 PM 19.4 °F 7.9 °F - N/A% 29.89 in 9.0 mi West 10.4 mph - N/A   Mostly Cloudy
3:57 PM 19.4 °F 8.6 °F - N/A% 29.89 in 9.0 mi West 9.2 mph - N/A   Overcast
4:00 PM 19.4 °F 8.6 °F - N/A% 30.05 in 9.0 mi West 9.2 mph - N/A   Overcast
4:05 PM 19.4 °F 8.6 °F - N/A% 29.89 in 9.0 mi West 9.2 mph - N/A   Overcast
4:42 PM 19.4 °F 8.6 °F - N/A% 29.90 in 9.0 mi West 9.2 mph - N/A   Mostly Cloudy
4:49 PM 19.4 °F 8.6 °F - N/A% 29.90 in 9.0 mi West 9.2 mph - N/A   Mostly Cloudy
4:52 PM 19.4 °F 8.6 °F - N/A% 29.89 in 9.0 mi West 9.2 mph - N/A   Mostly Cloudy
5:00 PM 20 °F - - % 30.05 in 9 mi West 9.2 mph - -   Overcast
5:00 PM 19.4 °F 8.6 °F - N/A% 30.05 in 9.0 mi West 9.2 mph - N/A   Overcast
5:04 PM 19.4 °F 8.6 °F - N/A% 29.89 in 9.0 mi West 9.2 mph - N/A   Mostly Cloudy
5:45 PM 19.4 °F 11.5 °F - N/A% 29.90 in 7.0 mi West 5.8 mph - N/A   Overcast
5:50 PM 19.4 °F 11.5 °F - N/A% 29.90 in 6.0 mi West 5.8 mph - N/A   Overcast
6:00 PM 19.4 °F 11.5 °F - N/A% 30.06 in 5.0 mi West 5.8 mph - N/A   Overcast
6:03 PM 19.4 °F 11.5 °F - N/A% 29.90 in 5.0 mi West 5.8 mph - N/A   Overcast
6:10 PM 19.4 °F 11.5 °F - N/A% 29.90 in 2.6 mi WSW 5.8 mph - N/A   Overcast
6:11 PM 19.4 °F 11.5 °F - N/A% 29.90 in 2.5 mi WSW 5.8 mph - N/A   Overcast
6:16 PM 19.4 °F 11.5 °F - N/A% 29.90 in 1.1 mi WSW 5.8 mph - N/A   Overcast
6:17 PM 19.4 °F 11.5 °F - N/A% 29.90 in 0.8 mi WSW 5.8 mph - N/A   Overcast
6:18 PM 19.4 °F 11.5 °F - N/A% 29.90 in 0.6 mi WSW 5.8 mph - N/A   Overcast
6:20 PM 19.4 °F 11.5 °F - N/A% 29.90 in 0.4 mi WSW 5.8 mph - N/A   Overcast
6:23 PM 19.4 °F 12.8 °F - N/A% 29.90 in 0.1 mi SW 4.6 mph - N/A   Overcast
6:36 PM 19.4 °F 12.8 °F - N/A% 29.90 in 0.1 mi WSW 4.6 mph - N/A   Overcast
7:00 PM 19.4 °F 14.3 °F - N/A% 30.06 in 0.1 mi WSW 3.5 mph - N/A   Overcast
7:19 PM 19.4 °F 14.3 °F - N/A% 29.91 in 0.1 mi West 3.5 mph - N/A   Mostly Cloudy
7:34 PM 19.4 °F 12.8 °F - N/A% 29.91 in 0.1 mi West 4.6 mph - N/A   Mostly Cloudy
7:37 PM 19.4 °F 12.8 °F - N/A% 29.91 in 0.5 mi West 4.6 mph - N/A   Mostly Cloudy
7:40 PM 19.4 °F 12.8 °F - N/A% 29.91 in 0.6 mi West 4.6 mph - N/A   Overcast
7:52 PM 19.4 °F 12.8 °F - N/A% 29.91 in 1.1 mi WNW 4.6 mph - N/A   Overcast
7:54 PM 19.4 °F 12.8 °F - N/A% 29.91 in 1.4 mi WNW 4.6 mph - N/A   Overcast
7:57 PM 19.4 °F 12.8 °F - N/A% 29.91 in 4.0 mi NW 4.6 mph - N/A   Overcast
8:00 PM 20 °F - - % 30.06 in 7 mi NW 4.6 mph - -   Overcast
8:00 PM 19.4 °F 12.8 °F - N/A% 30.06 in 8.0 mi NW 4.6 mph - N/A   Overcast
8:07 PM 19.4 °F 12.8 °F - N/A% 29.91 in 2.0 mi NW 4.6 mph - N/A   Overcast
8:09 PM 19.4 °F 12.8 °F - N/A% 29.91 in 1.4 mi NW 4.6 mph - N/A   Overcast
8:18 PM 19.4 °F 12.8 °F - N/A% 29.91 in 3.5 mi NW 4.6 mph - N/A   Overcast
9:00 PM 19.4 °F 14.3 °F - N/A% 30.06 in 9.0 mi WNW 3.5 mph - N/A   Overcast
9:07 PM 19.4 °F 14.3 °F - N/A% 29.90 in 9.0 mi WNW 3.5 mph - N/A   Overcast
9:22 PM 19.4 °F 14.3 °F - N/A% 29.90 in 9.0 mi WNW 3.5 mph - N/A   Overcast
9:44 PM 19.4 °F 14.3 °F - N/A% 29.90 in 2.0 mi WSW 3.5 mph - N/A   Overcast
9:45 PM 19.4 °F 14.3 °F - N/A% 29.90 in 1.2 mi WSW 3.5 mph - N/A   Overcast
9:46 PM 19.4 °F 14.3 °F - N/A% 29.90 in 1.0 mi WSW 3.5 mph - N/A   Overcast
9:47 PM 19.4 °F 14.3 °F - N/A% 29.90 in 0.6 mi WSW 3.5 mph - N/A   Overcast
9:49 PM 19.4 °F 14.3 °F - N/A% 29.90 in 0.4 mi WSW 3.5 mph - N/A   Overcast
9:52 PM 19.4 °F 14.3 °F - N/A% 29.90 in 0.1 mi WSW 3.5 mph - N/A   Overcast
10:00 PM 19.4 °F 14.3 °F - N/A% 30.06 in 0.1 mi WSW 3.5 mph - N/A   Overcast
10:57 PM 19.4 °F 12.8 °F - N/A% 29.90 in 0.2 mi WSW 4.6 mph - N/A   Overcast
11:00 PM 19 °F - - % 30.05 in 0 mi WSW 4.6 mph - -   Overcast
11:00 PM 19.4 °F 12.8 °F - N/A% 30.05 in 0.2 mi WSW 4.6 mph - N/A   Overcast
11:02 PM 19.4 °F - - N/A% 29.89 in 0.1 mi North - - N/A   Overcast
11:14 PM 19.4 °F 12.8 °F - N/A% 29.89 in 0.1 mi WSW 4.6 mph - N/A   Overcast
11:23 PM 19.4 °F 12.8 °F - N/A% 29.89 in 0.5 mi WSW 4.6 mph - N/A   Overcast
11:33 PM 19.4 °F 14.3 °F - N/A% 29.89 in 0.6 mi West 3.5 mph - N/A   Overcast
11:41 PM 19.4 °F 14.3 °F - N/A% 29.89 in 1.0 mi West 3.5 mph - N/A   Overcast
11:47 PM 19.4 °F 12.8 °F - N/A% 29.89 in 3.0 mi West 4.6 mph - N/A   Overcast
11:55 PM 19.4 °F 14.3 °F - N/A% 29.89 in 2.6 mi WNW 3.5 mph - N/A   Overcast
11:56 PM 19.4 °F 14.3 °F - N/A% 29.89 in 2.0 mi WNW 3.5 mph - N/A   Overcast
11:57 PM 19.4 °F 14.3 °F - N/A% 29.89 in 1.4 mi WNW 3.5 mph - N/A   Overcast
11:59 PM 19.4 °F 14.3 °F - N/A% 29.89 in 0.8 mi WNW 3.5 mph - N/A   Overcast